USA 567

operational
NORAD ID: 66145 Int'l Des: 2024-134 Owner: SFSSC Country: US
LEOCIRCULAR

关于 USA 567

正在加载描述...

实时位置

正在加载3D地球...

即将过境

高度历史

Altitude vs Time

uPlot chart will show altitude changes over time

两行轨道根数

1 66145C 25240A 25298.74631944 .00609550 00000+0 99855-3 0 2984
2 66145 53.1582 338.7962 0009087 271.3371 343.4984 16.01815590 16
Epoch: Oct 25, 2025 • Age: 181 hours

当前状态

高度 244.8 km
速度 7.76 km/s
星下点 38.13°N, 98.88°E
发射日期 Jul 30, 2024
运行时间 1.2 years
类型 military

技术详情

分类 Payload
质量 100.00 kg
干质量 100.00 kg
总质量 100.00 kg
长度 1.00 m
直径 1.00 m
跨度 1.00 m
形状 Box
制造商 UNKUS
平台类型 Unknown
阶段状态 In Orbit
所有者/国家 SFSSC/US

大型星座

Loading constellations...